Year,Month,Day,Hour,Minute,Value (Times are PST for temperature in C)
2017,09,24,00,00,10.10
2017,09,24,00,01,10.00
2017,09,24,00,02,10.00
2017,09,24,00,03,10.00
2017,09,24,00,04,10.00
2017,09,24,00,05,10.00
2017,09,24,00,06,10.00
2017,09,24,00,07,9.90
2017,09,24,00,08,9.90
2017,09,24,00,09,9.90
2017,09,24,00,10,9.90
2017,09,24,00,11,9.90
2017,09,24,00,12,9.90
2017,09,24,00,13,9.90
2017,09,24,00,14,9.90
2017,09,24,00,15,9.90
2017,09,24,00,16,9.80
2017,09,24,00,17,9.80
2017,09,24,00,18,9.80
2017,09,24,00,19,9.80
2017,09,24,00,20,9.80
2017,09,24,00,21,9.80
2017,09,24,00,22,9.80
2017,09,24,00,23,9.80
2017,09,24,00,24,9.80
2017,09,24,00,25,9.90
2017,09,24,00,26,9.90
2017,09,24,00,27,9.90
2017,09,24,00,28,9.90
2017,09,24,00,29,10.00
2017,09,24,00,30,10.00
2017,09,24,00,31,10.10
2017,09,24,00,32,10.10
2017,09,24,00,33,10.10
2017,09,24,00,34,10.10
2017,09,24,00,35,10.10
2017,09,24,00,36,10.20
2017,09,24,00,37,10.20
2017,09,24,00,38,10.20
2017,09,24,00,39,10.20
2017,09,24,00,40,10.20
2017,09,24,00,41,10.20
2017,09,24,00,42,10.20
2017,09,24,00,43,10.20
2017,09,24,00,44,10.30
2017,09,24,00,45,10.30
2017,09,24,00,46,10.30
2017,09,24,00,47,10.30
2017,09,24,00,48,10.30
2017,09,24,00,49,10.30
2017,09,24,00,50,10.40
2017,09,24,00,51,10.40
2017,09,24,00,52,10.40
2017,09,24,00,53,10.40
2017,09,24,00,54,10.40
2017,09,24,00,55,10.40
2017,09,24,00,56,10.40
2017,09,24,00,57,10.40
2017,09,24,00,58,10.40
2017,09,24,00,59,10.50
2017,09,24,01,00,10.50
2017,09,24,01,01,10.50
2017,09,24,01,02,10.50
2017,09,24,01,03,10.50
2017,09,24,01,04,10.60
2017,09,24,01,05,10.60
2017,09,24,01,06,10.60
2017,09,24,01,07,10.60
2017,09,24,01,08,10.60
2017,09,24,01,09,10.60
2017,09,24,01,10,10.60
2017,09,24,01,11,10.60
2017,09,24,01,12,10.60
2017,09,24,01,13,10.60
2017,09,24,01,14,10.60
2017,09,24,01,15,10.60
2017,09,24,01,16,10.70
2017,09,24,01,17,10.70
2017,09,24,01,18,10.70
2017,09,24,01,19,10.70
2017,09,24,01,20,10.70
2017,09,24,01,21,10.70
2017,09,24,01,22,10.70
2017,09,24,01,23,10.70
2017,09,24,01,24,10.80
2017,09,24,01,25,10.80
2017,09,24,01,26,10.80
2017,09,24,01,27,10.80
2017,09,24,01,28,10.80
2017,09,24,01,29,10.90
2017,09,24,01,30,10.90
2017,09,24,01,31,10.90
2017,09,24,01,32,10.90
2017,09,24,01,33,10.90
2017,09,24,01,34,10.90
2017,09,24,01,35,10.90
2017,09,24,01,36,10.90
2017,09,24,01,37,10.90
2017,09,24,01,38,11.00
2017,09,24,01,39,11.00
2017,09,24,01,40,11.00
2017,09,24,01,41,11.00
2017,09,24,01,42,11.00
2017,09,24,01,43,11.10
2017,09,24,01,44,11.10
2017,09,24,01,45,11.10
2017,09,24,01,46,11.10
2017,09,24,01,47,11.10
2017,09,24,01,48,11.10
2017,09,24,01,49,11.20
2017,09,24,01,50,11.20
2017,09,24,01,51,11.20
2017,09,24,01,52,11.20
2017,09,24,01,53,11.20
2017,09,24,01,54,11.20
2017,09,24,01,55,11.30
2017,09,24,01,56,11.30
2017,09,24,01,57,11.30
2017,09,24,01,58,11.30
2017,09,24,01,59,11.30
2017,09,24,02,00,11.30
2017,09,24,02,01,11.30
2017,09,24,02,02,11.40
2017,09,24,02,03,11.40
2017,09,24,02,04,11.40
2017,09,24,02,05,11.40
2017,09,24,02,06,11.40
2017,09,24,02,07,11.40
2017,09,24,02,08,11.40
2017,09,24,02,09,11.40
2017,09,24,02,10,11.40
2017,09,24,02,11,11.40
2017,09,24,02,12,11.50
2017,09,24,02,13,11.50
2017,09,24,02,14,11.50
2017,09,24,02,15,11.50
2017,09,24,02,16,11.50
2017,09,24,02,17,11.50
2017,09,24,02,18,11.50
2017,09,24,02,19,11.50
2017,09,24,02,20,11.60
2017,09,24,02,21,11.60
2017,09,24,02,22,11.60
2017,09,24,02,23,11.60
2017,09,24,02,24,11.60
2017,09,24,02,25,11.60
2017,09,24,02,26,11.60
2017,09,24,02,27,11.70
2017,09,24,02,28,11.70
2017,09,24,02,29,11.70
2017,09,24,02,30,11.70
2017,09,24,02,31,11.70
2017,09,24,02,32,11.80
2017,09,24,02,33,11.80
2017,09,24,02,34,11.80
2017,09,24,02,35,11.90
2017,09,24,02,36,11.90
2017,09,24,02,37,11.90
2017,09,24,02,38,12.00
2017,09,24,02,39,12.00
2017,09,24,02,40,12.10
2017,09,24,02,41,12.10
2017,09,24,02,42,12.10
2017,09,24,02,43,12.10
2017,09,24,02,44,12.20
2017,09,24,02,45,12.20
2017,09,24,02,46,12.20
2017,09,24,02,47,12.20
2017,09,24,02,48,12.20
2017,09,24,02,49,12.20
2017,09,24,02,50,12.20
2017,09,24,02,51,12.20
2017,09,24,02,52,12.30
2017,09,24,02,53,12.30
2017,09,24,02,54,12.30
2017,09,24,02,55,12.30
2017,09,24,02,56,12.30
2017,09,24,02,57,12.30
2017,09,24,02,58,12.30
2017,09,24,02,59,12.30
2017,09,24,03,00,12.30
2017,09,24,03,01,12.30
2017,09,24,03,02,12.30
2017,09,24,03,03,12.30
2017,09,24,03,04,12.30
2017,09,24,03,05,12.30
2017,09,24,03,06,12.30
2017,09,24,03,07,12.30
2017,09,24,03,08,12.30
2017,09,24,03,09,12.30
2017,09,24,03,10,12.20
2017,09,24,03,11,12.20
2017,09,24,03,12,12.20
2017,09,24,03,13,12.20
2017,09,24,03,14,12.20
2017,09,24,03,15,12.20
2017,09,24,03,16,12.20
2017,09,24,03,17,12.20
2017,09,24,03,18,12.20
2017,09,24,03,19,12.20
2017,09,24,03,20,12.20
2017,09,24,03,21,12.20
2017,09,24,03,22,12.20
2017,09,24,03,23,12.20
2017,09,24,03,24,12.20
2017,09,24,03,25,12.20
2017,09,24,03,26,12.20
2017,09,24,03,27,12.20
2017,09,24,03,28,12.20
2017,09,24,03,29,12.20
2017,09,24,03,30,12.20
2017,09,24,03,31,12.20
2017,09,24,03,32,12.20
2017,09,24,03,33,12.20
2017,09,24,03,34,12.20
2017,09,24,03,35,12.20
2017,09,24,03,36,12.20
2017,09,24,03,37,12.20
2017,09,24,03,38,12.20
2017,09,24,03,39,12.20
2017,09,24,03,40,12.20
2017,09,24,03,41,12.20
2017,09,24,03,42,12.20
2017,09,24,03,43,12.20
2017,09,24,03,44,12.20
2017,09,24,03,45,12.20
2017,09,24,03,46,12.20
2017,09,24,03,47,12.20
2017,09,24,03,48,12.20
2017,09,24,03,49,12.20
2017,09,24,03,50,12.20
2017,09,24,03,51,12.20
2017,09,24,03,52,12.20
2017,09,24,03,53,12.20
2017,09,24,03,54,12.20
2017,09,24,03,55,12.20
2017,09,24,03,56,12.20
2017,09,24,03,57,12.20
2017,09,24,03,58,12.10
2017,09,24,03,59,12.10
2017,09,24,04,00,12.10
2017,09,24,04,01,12.10
2017,09,24,04,02,12.10
2017,09,24,04,03,12.10
2017,09,24,04,04,12.10
2017,09,24,04,05,12.10
2017,09,24,04,06,12.10
2017,09,24,04,07,12.10
2017,09,24,04,08,12.10
2017,09,24,04,09,12.10
2017,09,24,04,10,12.10
2017,09,24,04,11,12.10
2017,09,24,04,12,12.10
2017,09,24,04,13,12.10
2017,09,24,04,14,12.10
2017,09,24,04,15,12.10
2017,09,24,04,16,12.10
2017,09,24,04,17,12.10
2017,09,24,04,18,12.10
2017,09,24,04,19,12.10
2017,09,24,04,20,12.10
2017,09,24,04,21,12.00
2017,09,24,04,22,12.10
2017,09,24,04,23,12.10
2017,09,24,04,24,12.10
2017,09,24,04,25,12.00
2017,09,24,04,26,12.00
2017,09,24,04,27,12.10
2017,09,24,04,28,12.00
2017,09,24,04,29,12.00
2017,09,24,04,30,12.00
2017,09,24,04,31,12.00
2017,09,24,04,32,12.00
2017,09,24,04,33,11.90
2017,09,24,04,34,11.90
2017,09,24,04,35,11.90
2017,09,24,04,36,11.90
2017,09,24,04,37,11.90
2017,09,24,04,38,11.90
2017,09,24,04,39,11.90
2017,09,24,04,40,11.90
2017,09,24,04,41,11.90
2017,09,24,04,42,11.90
2017,09,24,04,43,11.90
2017,09,24,04,44,11.80
2017,09,24,04,45,11.80
2017,09,24,04,46,11.80
2017,09,24,04,47,11.80
2017,09,24,04,48,11.80
2017,09,24,04,49,11.80
2017,09,24,04,50,11.80
2017,09,24,04,51,11.80
2017,09,24,04,52,11.80
2017,09,24,04,53,11.80
2017,09,24,04,54,11.80
2017,09,24,04,55,11.80
2017,09,24,04,56,11.80
2017,09,24,04,57,11.80
2017,09,24,04,58,11.80
2017,09,24,04,59,11.80
2017,09,24,05,00,11.70
2017,09,24,05,01,11.70
2017,09,24,05,02,11.70
2017,09,24,05,03,11.70
2017,09,24,05,04,11.70
2017,09,24,05,05,11.70
2017,09,24,05,06,11.60
2017,09,24,05,07,11.60
2017,09,24,05,08,11.60
2017,09,24,05,09,11.60
2017,09,24,05,10,11.60
2017,09,24,05,11,11.50
2017,09,24,05,12,11.50
2017,09,24,05,13,11.50
2017,09,24,05,14,11.40
2017,09,24,05,15,11.40
2017,09,24,05,16,11.40
2017,09,24,05,17,11.40
2017,09,24,05,18,11.40
2017,09,24,05,19,11.40
2017,09,24,05,20,11.40
2017,09,24,05,21,11.40
2017,09,24,05,22,11.30
2017,09,24,05,23,11.30
2017,09,24,05,24,11.30
2017,09,24,05,25,11.30
2017,09,24,05,26,11.30
2017,09,24,05,27,11.30
2017,09,24,05,28,11.30
2017,09,24,05,29,11.30
2017,09,24,05,30,11.30
2017,09,24,05,31,11.30
2017,09,24,05,32,11.30
2017,09,24,05,33,11.30
2017,09,24,05,34,11.30
2017,09,24,05,35,11.30
2017,09,24,05,36,11.30
2017,09,24,05,37,11.30
2017,09,24,05,38,11.30
2017,09,24,05,39,11.30
2017,09,24,05,40,11.30
2017,09,24,05,41,11.30
2017,09,24,05,42,11.30
2017,09,24,05,43,11.30
2017,09,24,05,44,11.30
2017,09,24,05,45,11.30
2017,09,24,05,46,11.30
2017,09,24,05,47,11.30
2017,09,24,05,48,11.30
2017,09,24,05,49,11.30
2017,09,24,05,50,11.30
2017,09,24,05,51,11.30
2017,09,24,05,52,11.30
2017,09,24,05,53,11.30
2017,09,24,05,54,11.30
2017,09,24,05,55,11.30
2017,09,24,05,56,11.30
2017,09,24,05,57,11.30
2017,09,24,05,58,11.30
2017,09,24,05,59,11.30
2017,09,24,06,00,11.30
2017,09,24,06,01,11.30
2017,09,24,06,02,11.30
2017,09,24,06,03,11.30
2017,09,24,06,04,11.30
2017,09,24,06,05,11.30
2017,09,24,06,06,11.30
2017,09,24,06,07,11.30
2017,09,24,06,08,11.30
2017,09,24,06,09,11.30
2017,09,24,06,10,11.30
2017,09,24,06,11,11.30
2017,09,24,06,12,11.40
2017,09,24,06,13,11.30
2017,09,24,06,14,11.40
2017,09,24,06,15,11.40
2017,09,24,06,16,11.40
2017,09,24,06,17,11.40
2017,09,24,06,18,11.40
2017,09,24,06,19,11.40
2017,09,24,06,20,11.40
2017,09,24,06,21,11.40
2017,09,24,06,22,11.40
2017,09,24,06,23,11.40
2017,09,24,06,24,11.40
2017,09,24,06,25,11.40
2017,09,24,06,26,11.40
2017,09,24,06,27,11.40
2017,09,24,06,28,11.40
2017,09,24,06,29,11.40
2017,09,24,06,30,11.40
2017,09,24,06,31,11.50
2017,09,24,06,32,11.50
2017,09,24,06,33,11.50
2017,09,24,06,34,11.50
2017,09,24,06,35,11.50
2017,09,24,06,36,11.50
2017,09,24,06,37,11.50
2017,09,24,06,38,11.50
2017,09,24,06,39,11.50
2017,09,24,06,40,11.50
2017,09,24,06,41,11.50
2017,09,24,06,42,11.50
2017,09,24,06,43,11.50
2017,09,24,06,44,11.50
2017,09,24,06,45,11.50
2017,09,24,06,46,11.50
2017,09,24,06,47,11.50
2017,09,24,06,48,11.50
2017,09,24,06,49,11.50
2017,09,24,06,50,11.50
2017,09,24,06,51,11.50
2017,09,24,06,52,11.50
2017,09,24,06,53,11.50
2017,09,24,06,54,11.50
2017,09,24,06,55,11.50
2017,09,24,06,56,11.50
2017,09,24,06,57,11.50
2017,09,24,06,58,11.50
2017,09,24,06,59,11.50
2017,09,24,07,00,11.50
2017,09,24,07,01,11.50
2017,09,24,07,02,11.50
2017,09,24,07,03,11.50
2017,09,24,07,04,11.50
2017,09,24,07,05,11.50
2017,09,24,07,06,11.50
2017,09,24,07,07,11.60
2017,09,24,07,08,11.50
2017,09,24,07,09,11.60
2017,09,24,07,10,11.60
2017,09,24,07,11,11.50
2017,09,24,07,12,11.50
2017,09,24,07,13,11.50
2017,09,24,07,14,11.50
2017,09,24,07,15,11.50
2017,09,24,07,16,11.50
2017,09,24,07,17,11.50
2017,09,24,07,18,11.50
2017,09,24,07,19,11.50
2017,09,24,07,20,11.40
2017,09,24,07,21,11.40
2017,09,24,07,22,11.40
2017,09,24,07,23,11.40
2017,09,24,07,24,11.40
2017,09,24,07,25,11.40
2017,09,24,07,26,11.40
2017,09,24,07,27,11.40
2017,09,24,07,28,11.40
2017,09,24,07,29,11.30
2017,09,24,07,30,11.30
2017,09,24,07,31,11.30
2017,09,24,07,32,11.30
2017,09,24,07,33,11.30
2017,09,24,07,34,11.30
2017,09,24,07,35,11.30
2017,09,24,07,36,11.30
2017,09,24,07,37,11.30
2017,09,24,07,38,11.20
2017,09,24,07,39,11.20
2017,09,24,07,40,11.20
2017,09,24,07,41,11.20
2017,09,24,07,42,11.20
2017,09,24,07,43,11.20
2017,09,24,07,44,11.20
2017,09,24,07,45,11.20
2017,09,24,07,46,11.20
2017,09,24,07,47,11.20
2017,09,24,07,48,11.20
2017,09,24,07,49,11.20
2017,09,24,07,50,11.20
2017,09,24,07,51,11.20
2017,09,24,07,52,11.20
2017,09,24,07,53,11.20
2017,09,24,07,54,11.20
2017,09,24,07,55,11.20
2017,09,24,07,56,11.30
2017,09,24,07,57,11.30
2017,09,24,07,58,11.30
2017,09,24,07,59,11.30
2017,09,24,08,00,11.30
2017,09,24,08,01,11.30
2017,09,24,08,02,11.30
2017,09,24,08,03,11.30
2017,09,24,08,04,11.40
2017,09,24,08,05,11.40
2017,09,24,08,06,11.40
2017,09,24,08,07,11.40
2017,09,24,08,08,11.50
2017,09,24,08,09,11.50
2017,09,24,08,10,11.60
2017,09,24,08,11,11.60
2017,09,24,08,12,11.60
2017,09,24,08,13,11.60
2017,09,24,08,14,11.60
2017,09,24,08,15,11.70
2017,09,24,08,16,11.70
2017,09,24,08,17,11.70
2017,09,24,08,18,11.70
2017,09,24,08,19,11.80
2017,09,24,08,20,11.80
2017,09,24,08,21,11.80
2017,09,24,08,22,11.80
2017,09,24,08,23,11.90
2017,09,24,08,24,11.90
2017,09,24,08,25,11.90
2017,09,24,08,26,11.90
2017,09,24,08,27,12.00
2017,09,24,08,28,12.00
2017,09,24,08,29,12.00
2017,09,24,08,30,12.10
2017,09,24,08,31,12.10
2017,09,24,08,32,12.10
2017,09,24,08,33,12.10
2017,09,24,08,34,12.20
2017,09,24,08,35,12.20
2017,09,24,08,36,12.20
2017,09,24,08,37,12.20
2017,09,24,08,38,12.30
2017,09,24,08,39,12.30
2017,09,24,08,40,12.30
2017,09,24,08,41,12.40
2017,09,24,08,42,12.40
2017,09,24,08,43,12.40
2017,09,24,08,44,12.50
2017,09,24,08,45,12.50
2017,09,24,08,46,12.60
2017,09,24,08,47,12.60
2017,09,24,08,48,12.70
2017,09,24,08,49,12.80
2017,09,24,08,50,12.80
2017,09,24,08,51,12.90
2017,09,24,08,52,12.90
2017,09,24,08,53,13.00
2017,09,24,08,54,13.10
2017,09,24,08,55,13.10
2017,09,24,08,56,13.20
2017,09,24,08,57,13.20
2017,09,24,08,58,13.30
2017,09,24,08,59,13.30
2017,09,24,09,00,13.40
2017,09,24,09,01,13.40
2017,09,24,09,02,13.50
2017,09,24,09,03,13.60
2017,09,24,09,04,13.60
2017,09,24,09,05,13.70
2017,09,24,09,06,13.70
2017,09,24,09,07,13.70
2017,09,24,09,08,13.80
2017,09,24,09,09,13.80
2017,09,24,09,10,13.80
2017,09,24,09,11,13.90
2017,09,24,09,12,13.90
2017,09,24,09,13,14.00
2017,09,24,09,14,14.00
2017,09,24,09,15,14.10
2017,09,24,09,16,14.10
2017,09,24,09,17,14.10
2017,09,24,09,18,14.00
2017,09,24,09,19,14.00
2017,09,24,09,20,14.10
2017,09,24,09,21,14.10
2017,09,24,09,22,14.10
2017,09,24,09,23,14.10
2017,09,24,09,24,14.00
2017,09,24,09,25,14.10
2017,09,24,09,26,14.10
2017,09,24,09,27,14.10
2017,09,24,09,28,14.10
2017,09,24,09,29,14.10
2017,09,24,09,30,14.10
2017,09,24,09,31,14.20
2017,09,24,09,32,14.20
2017,09,24,09,33,14.20
2017,09,24,09,34,14.30
2017,09,24,09,35,14.30
2017,09,24,09,36,14.40
2017,09,24,09,37,14.50
2017,09,24,09,38,14.50
2017,09,24,09,39,14.60
2017,09,24,09,40,14.70
2017,09,24,09,41,14.80
2017,09,24,09,42,14.90
2017,09,24,09,43,15.00
2017,09,24,09,44,15.00
2017,09,24,09,45,15.00
2017,09,24,09,46,15.20
2017,09,24,09,47,15.30
2017,09,24,09,48,15.40
2017,09,24,09,49,15.40
2017,09,24,09,50,15.40
2017,09,24,09,51,15.40
2017,09,24,09,52,15.40
2017,09,24,09,53,15.50
2017,09,24,09,54,15.50
2017,09,24,09,55,15.60
2017,09,24,09,56,15.60
2017,09,24,09,57,15.70
2017,09,24,09,58,15.70
2017,09,24,09,59,15.80
2017,09,24,10,00,15.90
2017,09,24,10,01,16.00
2017,09,24,10,02,16.10
2017,09,24,10,03,16.20
2017,09,24,10,04,16.30
2017,09,24,10,05,16.40
2017,09,24,10,06,16.50
2017,09,24,10,07,16.50
2017,09,24,10,08,16.60
2017,09,24,10,09,16.60
2017,09,24,10,10,16.60
2017,09,24,10,11,16.50
2017,09,24,10,12,16.50
2017,09,24,10,13,16.50
2017,09,24,10,14,16.40
2017,09,24,10,15,16.40
2017,09,24,10,16,16.40
2017,09,24,10,17,16.40
2017,09,24,10,18,16.40
2017,09,24,10,19,16.40
2017,09,24,10,20,16.40
2017,09,24,10,21,16.50
2017,09,24,10,22,16.60
2017,09,24,10,23,16.60
2017,09,24,10,24,16.60
2017,09,24,10,25,16.60
2017,09,24,10,26,16.70
2017,09,24,10,27,16.80
2017,09,24,10,28,16.80
2017,09,24,10,29,16.90
2017,09,24,10,30,16.90
2017,09,24,10,31,16.90
2017,09,24,10,32,16.90
2017,09,24,10,33,16.90
2017,09,24,10,34,16.90
2017,09,24,10,35,16.90
2017,09,24,10,36,16.90
2017,09,24,10,37,16.90
2017,09,24,10,38,16.90
2017,09,24,10,39,16.90
2017,09,24,10,40,16.90
2017,09,24,10,41,16.90
2017,09,24,10,42,16.90
2017,09,24,10,43,17.00
2017,09,24,10,44,17.00
2017,09,24,10,45,17.10
2017,09,24,10,46,17.10
2017,09,24,10,47,17.10
2017,09,24,10,48,17.20
2017,09,24,10,49,17.30
2017,09,24,10,50,17.30
2017,09,24,10,51,17.40
2017,09,24,10,52,17.50
2017,09,24,10,53,17.60
2017,09,24,10,54,17.70
2017,09,24,10,55,17.80
2017,09,24,10,56,17.80
2017,09,24,10,57,17.90
2017,09,24,10,58,18.00
2017,09,24,10,59,18.00
2017,09,24,11,00,18.10
2017,09,24,11,01,18.20
2017,09,24,11,02,18.20
2017,09,24,11,03,18.20
2017,09,24,11,04,18.30
2017,09,24,11,05,18.40
2017,09,24,11,06,18.50
2017,09,24,11,07,18.70
2017,09,24,11,08,18.80
2017,09,24,11,09,19.00
2017,09,24,11,10,19.10
2017,09,24,11,11,19.20
2017,09,24,11,12,19.20
2017,09,24,11,13,19.30
2017,09,24,11,14,19.40
2017,09,24,11,15,19.40
2017,09,24,11,16,19.40
2017,09,24,11,17,19.30
2017,09,24,11,18,19.30
2017,09,24,11,19,19.20
2017,09,24,11,20,19.20
2017,09,24,11,21,19.20
2017,09,24,11,22,19.20
2017,09,24,11,23,19.30
2017,09,24,11,24,19.30
2017,09,24,11,25,19.30
2017,09,24,11,26,19.30
2017,09,24,11,27,19.40
2017,09,24,11,28,19.40
2017,09,24,11,29,19.50
2017,09,24,11,30,19.60
2017,09,24,11,31,19.60
2017,09,24,11,32,19.60
2017,09,24,11,33,19.70
2017,09,24,11,34,19.70
2017,09,24,11,35,19.80
2017,09,24,11,36,19.80
2017,09,24,11,37,19.80
2017,09,24,11,38,19.80
2017,09,24,11,39,19.90
2017,09,24,11,40,20.00
2017,09,24,11,41,20.10
2017,09,24,11,42,20.20
2017,09,24,11,43,20.30
2017,09,24,11,44,20.30
2017,09,24,11,45,20.30
2017,09,24,11,46,20.30
2017,09,24,11,47,20.20
2017,09,24,11,48,20.10
2017,09,24,11,49,19.90
2017,09,24,11,50,19.70
2017,09,24,11,51,19.60
2017,09,24,11,52,19.60
2017,09,24,11,53,19.60
2017,09,24,11,54,19.60
2017,09,24,11,55,19.60
2017,09,24,11,56,19.50
2017,09,24,11,57,19.50
2017,09,24,11,58,19.40
2017,09,24,11,59,19.40
2017,09,24,12,00,19.30
2017,09,24,12,01,19.30
2017,09,24,12,02,19.30
2017,09,24,12,03,19.30
2017,09,24,12,04,19.40
2017,09,24,12,05,19.50
2017,09,24,12,06,19.60
2017,09,24,12,07,19.70
2017,09,24,12,08,19.70
2017,09,24,12,09,20.00
2017,09,24,12,10,20.20
2017,09,24,12,11,20.30
2017,09,24,12,12,20.30
2017,09,24,12,13,20.30
2017,09,24,12,14,20.30
2017,09,24,12,15,20.30
2017,09,24,12,16,20.20
2017,09,24,12,17,20.10
2017,09,24,12,18,20.10
2017,09,24,12,19,20.10
2017,09,24,12,20,20.10
2017,09,24,12,21,20.20
2017,09,24,12,22,20.30
2017,09,24,12,23,20.30
2017,09,24,12,24,20.40
2017,09,24,12,25,20.40
2017,09,24,12,26,20.40
2017,09,24,12,27,20.40
2017,09,24,12,28,20.40
2017,09,24,12,29,20.50
2017,09,24,12,30,20.60
2017,09,24,12,31,20.70
2017,09,24,12,32,20.80
2017,09,24,12,33,21.00
2017,09,24,12,34,21.20
2017,09,24,12,35,21.30
2017,09,24,12,36,21.50
2017,09,24,12,37,21.60
2017,09,24,12,38,21.60
2017,09,24,12,39,21.60
2017,09,24,12,40,21.60
2017,09,24,12,41,21.70
2017,09,24,12,42,21.70
2017,09,24,12,43,21.80
2017,09,24,12,44,21.80
2017,09,24,12,45,21.80
2017,09,24,12,46,21.80
2017,09,24,12,47,21.60
2017,09,24,12,48,21.50
2017,09,24,12,49,21.30
2017,09,24,12,50,21.10
2017,09,24,12,51,21.00
2017,09,24,12,52,20.90
2017,09,24,12,53,20.70
2017,09,24,12,54,20.70
2017,09,24,12,55,20.60
2017,09,24,12,56,20.60
2017,09,24,12,57,20.50
2017,09,24,12,58,20.50
2017,09,24,12,59,20.40
2017,09,24,13,00,20.40
2017,09,24,13,01,20.30
2017,09,24,13,02,20.20
2017,09,24,13,03,20.20
2017,09,24,13,04,20.10
2017,09,24,13,05,20.00
2017,09,24,13,06,20.00
2017,09,24,13,07,20.00
2017,09,24,13,08,20.10
2017,09,24,13,09,20.10
2017,09,24,13,10,20.20
2017,09,24,13,11,20.20
2017,09,24,13,12,20.30
2017,09,24,13,13,20.30
2017,09,24,13,14,20.30
2017,09,24,13,15,20.40
2017,09,24,13,16,20.50
2017,09,24,13,17,20.50
2017,09,24,13,18,20.50
2017,09,24,13,19,20.50
2017,09,24,13,20,20.50
2017,09,24,13,21,20.40
2017,09,24,13,22,20.40
2017,09,24,13,23,20.40
2017,09,24,13,24,20.50
2017,09,24,13,25,20.50
2017,09,24,13,26,20.50
2017,09,24,13,27,20.60
2017,09,24,13,28,20.60
2017,09,24,13,29,20.70
2017,09,24,13,30,20.80
2017,09,24,13,31,20.90
2017,09,24,13,32,21.00
2017,09,24,13,33,21.00
2017,09,24,13,34,21.00
2017,09,24,13,35,21.10
2017,09,24,13,36,21.00
2017,09,24,13,37,20.90
2017,09,24,13,38,21.00
2017,09,24,13,39,21.10
2017,09,24,13,40,21.20
2017,09,24,13,41,21.30
2017,09,24,13,42,21.40
2017,09,24,13,43,21.40
2017,09,24,13,44,21.40
2017,09,24,13,45,21.50
2017,09,24,13,46,21.50
2017,09,24,13,47,21.40
2017,09,24,13,48,21.40
2017,09,24,13,49,21.50
2017,09,24,13,50,21.50
2017,09,24,13,51,21.60
2017,09,24,13,52,21.70
2017,09,24,13,53,21.70
2017,09,24,13,54,21.80
2017,09,24,13,55,21.80
2017,09,24,13,56,21.70
2017,09,24,13,57,21.70
2017,09,24,13,58,21.60
2017,09,24,13,59,21.60
2017,09,24,14,00,21.50
2017,09,24,14,01,21.40
2017,09,24,14,02,21.40
2017,09,24,14,03,21.40
2017,09,24,14,04,21.40
2017,09,24,14,05,21.40
2017,09,24,14,06,21.40
2017,09,24,14,07,21.50
2017,09,24,14,08,21.50
2017,09,24,14,09,21.60
2017,09,24,14,10,21.60
2017,09,24,14,11,21.60
2017,09,24,14,12,21.60
2017,09,24,14,13,21.60
2017,09,24,14,14,21.60
2017,09,24,14,15,21.50
2017,09,24,14,16,21.40
2017,09,24,14,17,21.40
2017,09,24,14,18,21.30
2017,09,24,14,19,21.30
2017,09,24,14,20,21.40
2017,09,24,14,21,21.50
2017,09,24,14,22,21.60
2017,09,24,14,23,21.70
2017,09,24,14,24,21.70
2017,09,24,14,25,21.70
2017,09,24,14,26,21.70
2017,09,24,14,27,21.70
2017,09,24,14,28,21.80
2017,09,24,14,29,21.80
2017,09,24,14,30,21.80
2017,09,24,14,31,21.80
2017,09,24,14,32,21.90
2017,09,24,14,33,21.90
2017,09,24,14,34,21.90
2017,09,24,14,35,22.00
2017,09,24,14,36,22.00
2017,09,24,14,37,22.10
2017,09,24,14,38,22.20
2017,09,24,14,39,22.30
2017,09,24,14,40,22.30
2017,09,24,14,41,22.30
2017,09,24,14,42,22.30
2017,09,24,14,43,22.30
2017,09,24,14,44,22.40
2017,09,24,14,45,22.50
2017,09,24,14,46,22.50
2017,09,24,14,47,22.60
2017,09,24,14,48,22.70
2017,09,24,14,49,22.80
2017,09,24,14,50,22.90
2017,09,24,14,51,23.10
2017,09,24,14,52,23.30
2017,09,24,14,53,23.50
2017,09,24,14,54,23.60
2017,09,24,14,55,23.80
2017,09,24,14,56,23.90
2017,09,24,14,57,24.10
2017,09,24,14,58,24.20
2017,09,24,14,59,24.30
2017,09,24,15,00,24.30
2017,09,24,15,01,24.30
2017,09,24,15,02,24.20
2017,09,24,15,03,24.00
2017,09,24,15,04,23.90
2017,09,24,15,05,23.70
2017,09,24,15,06,23.30
2017,09,24,15,07,23.10
2017,09,24,15,08,23.00
2017,09,24,15,09,23.00
2017,09,24,15,10,22.90
2017,09,24,15,11,22.90
2017,09,24,15,12,23.00
2017,09,24,15,13,23.10
2017,09,24,15,14,23.20
2017,09,24,15,15,23.20
2017,09,24,15,16,23.30
2017,09,24,15,17,23.30
2017,09,24,15,18,23.30
2017,09,24,15,19,23.20
2017,09,24,15,20,23.20
2017,09,24,15,21,23.20
2017,09,24,15,22,23.20
2017,09,24,15,23,23.20
2017,09,24,15,24,23.30
2017,09,24,15,25,23.30
2017,09,24,15,26,23.20
2017,09,24,15,27,23.10
2017,09,24,15,28,23.00
2017,09,24,15,29,22.90
2017,09,24,15,30,22.80
2017,09,24,15,31,22.70
2017,09,24,15,32,22.60
2017,09,24,15,33,22.60
2017,09,24,15,34,22.60
2017,09,24,15,35,22.50
2017,09,24,15,36,22.50
2017,09,24,15,37,22.40
2017,09,24,15,38,22.40
2017,09,24,15,39,22.40
2017,09,24,15,40,22.30
2017,09,24,15,41,22.30
2017,09,24,15,42,22.30
2017,09,24,15,43,22.30
2017,09,24,15,44,22.30
2017,09,24,15,45,22.30
2017,09,24,15,46,22.30
2017,09,24,15,47,22.30
2017,09,24,15,48,22.30
2017,09,24,15,49,22.30
2017,09,24,15,50,22.20
2017,09,24,15,51,22.20
2017,09,24,15,52,22.20
2017,09,24,15,53,22.20
2017,09,24,15,54,22.20
2017,09,24,15,55,22.20
2017,09,24,15,56,22.10
2017,09,24,15,57,22.10
2017,09,24,15,58,22.00
2017,09,24,15,59,22.00
2017,09,24,16,00,21.90
2017,09,24,16,01,21.90
2017,09,24,16,02,21.90
2017,09,24,16,03,21.80
2017,09,24,16,04,21.80
2017,09,24,16,05,21.90
2017,09,24,16,06,21.90
2017,09,24,16,07,21.80
2017,09,24,16,08,21.80
2017,09,24,16,09,21.70
2017,09,24,16,10,21.70
2017,09,24,16,11,21.60
2017,09,24,16,12,21.60
2017,09,24,16,13,21.60
2017,09,24,16,14,21.60
2017,09,24,16,15,21.70
2017,09,24,16,16,21.70
2017,09,24,16,17,21.70
2017,09,24,16,18,21.70
2017,09,24,16,19,21.80
2017,09,24,16,20,21.70
2017,09,24,16,21,21.70
2017,09,24,16,22,21.70
2017,09,24,16,23,21.60
2017,09,24,16,24,21.60
2017,09,24,16,25,21.60
2017,09,24,16,26,21.50
2017,09,24,16,27,21.50
2017,09,24,16,28,21.40
2017,09,24,16,29,21.40
2017,09,24,16,30,21.40
2017,09,24,16,31,21.30
2017,09,24,16,32,21.30
2017,09,24,16,33,21.30
2017,09,24,16,34,21.30
2017,09,24,16,35,21.30
2017,09,24,16,36,21.30
2017,09,24,16,37,21.30
2017,09,24,16,38,21.30
2017,09,24,16,39,21.30
2017,09,24,16,40,21.30
2017,09,24,16,41,21.30
2017,09,24,16,42,21.30
2017,09,24,16,43,21.30
2017,09,24,16,44,21.30
2017,09,24,16,45,21.30
2017,09,24,16,46,21.30
2017,09,24,16,47,21.30
2017,09,24,16,48,21.30
2017,09,24,16,49,21.30
2017,09,24,16,50,21.30
2017,09,24,16,51,21.30
2017,09,24,16,52,21.30
2017,09,24,16,53,21.30
2017,09,24,16,54,21.30
2017,09,24,16,55,21.30
2017,09,24,16,56,21.20
2017,09,24,16,57,21.20
2017,09,24,16,58,21.20
2017,09,24,16,59,21.20
2017,09,24,17,00,21.20
2017,09,24,17,01,21.10
2017,09,24,17,02,21.10
2017,09,24,17,03,21.10
2017,09,24,17,04,21.10
2017,09,24,17,05,21.00
2017,09,24,17,06,21.00
2017,09,24,17,07,20.90
2017,09,24,17,08,20.90
2017,09,24,17,09,20.90
2017,09,24,17,10,20.90
2017,09,24,17,11,20.90
2017,09,24,17,12,20.90
2017,09,24,17,13,20.90
2017,09,24,17,14,20.90
2017,09,24,17,15,20.90
2017,09,24,17,16,20.90
2017,09,24,17,17,20.90
2017,09,24,17,18,20.90
2017,09,24,17,19,20.80
2017,09,24,17,20,20.80